New Bern, NC

6:54 AM EDT on October 21, 2019 (GMT -0400)
Craven County Regional

Weather History for KEWN - September, 2019

Change the Weather History Date:

Monday, September 16, 2019

  Actual Average Record
Temperature  
Mean Temperature 80 °F 74 °F  
Max Temperature 87 °F 83 °F 94 °F (1956)
Min Temperature 72 °F 65 °F 54 °F (2000)
Degree Days  
Heating Degree Days 0 0  
Month to date heating degree days 0 0  
Since 1 July heating degree days 0 0  
Cooling Degree Days 14 9  
Month to date cooling degree days 230 173  
Year to date cooling degree days 2015 1702  
Growing Degree Days 30 (Base 50)    
Moisture  
Dew Point 73 °F    
Average Humidity 87    
Maximum Humidity 100    
Minimum Humidity 61    
Precipitation  
Precipitation 0.00 in 0.21 in 2.02 in (1981)
Month to date precipitation 6.28 3.25  
Year to date precipitation 34.72 40.05  
Snow  
Snow 0.00 in - - ()
Month to date snowfall 0.0  
Since 1 July snowfall 0.0  
Snow Depth 0.00 in    
Sea Level Pressure  
Sea Level Pressure 30.02 in    
Wind  
Wind Speed 7 mph ()    
Max Wind Speed 17 mph    
Max Gust Speed 26 mph    
Visibility 9.3 miles    
Events      
T = Trace of Precipitation, MM = Missing Value Source: Averaged Metar Reports

Daily Weather History Graph

Daily Weather History Graph

Search for Another Location

Airport or City:

Astronomy

Sep. 16, 2019 Rise Set
Actual Time 6:51 AM EDT 7:13 PM EDT
Civil Twilight 6:26 AM EDT 7:39 PM EDT
Nautical Twilight 5:56 AM EDT 8:09 PM EDT
Astronomical Twilight 5:26 AM EDT 8:39 PM EDT
Moon 8:52 PM EDT (9/16) 8:53 AM EDT (9/16)
Length of Visible Light 13h 13m
Length of Day
12h 22m
Waning Gibbous, 94% of the Moon is Illuminated
Sep 16
Waning Gibbous
Sep 21
Last Quarter
Sep 28
New
Oct 5
First Quarter
Oct 13
Full

Hourly Weather History & Observations

Time (EDT) Temp. Heat Index Dew Point Humidity Pressure Visibility Wind Dir Wind Speed Gust Speed Precip Events Conditions
12:54 AM 73.9 °F - 73.9 °F 100% 30.06 in 10.0 mi NE 4.6 mph - N/A   Clear
1:54 AM 73.9 °F - 73.9 °F 100% 30.05 in 10.0 mi NNE 4.6 mph - N/A   Clear
2:54 AM 73.9 °F - 73.9 °F 100% 30.04 in 10.0 mi Calm Calm - N/A   Scattered Clouds
3:03 AM 75.0 °F - 75.0 °F 100% 30.04 in 10.0 mi NE 6.9 mph - N/A   Mostly Cloudy
3:21 AM 73.9 °F - 73.9 °F 100% 30.04 in 2.0 mi NNE 6.9 mph - N/A   Overcast
3:29 AM 75.0 °F - 75.0 °F 100% 30.04 in 4.0 mi NNE 8.1 mph - N/A   Overcast
3:54 AM 75.0 °F - 75.0 °F 100% 30.04 in 8.0 mi NE 8.1 mph - N/A   Overcast
4:36 AM 75.0 °F - 75.0 °F 100% 30.03 in 10.0 mi NNE 8.1 mph - N/A   Overcast
4:50 AM 75.2 °F - 75.2 °F 100% 30.03 in 10.0 mi NNE 6.9 mph - N/A   Overcast
5:26 AM 73.9 °F - 73.9 °F 100% 30.03 in 10.0 mi NNE 4.6 mph - N/A   Partly Cloudy
5:54 AM 73.9 °F - 73.9 °F 100% 30.04 in 10.0 mi NNE 4.6 mph - N/A   Scattered Clouds
6:52 AM 73.4 °F - 73.4 °F 100% 30.05 in 6.0 mi NNE 8.1 mph - N/A   Overcast
6:54 AM 73.0 °F - 73.0 °F 100% 30.05 in 5.0 mi NNE 10.4 mph - N/A   Overcast
7:49 AM 73.4 °F - 73.4 °F 100% 30.05 in 10.0 mi NNE 5.8 mph - N/A   Overcast
7:54 AM 75.0 °F - 73.9 °F 96% 30.05 in 10.0 mi NE 5.8 mph - N/A   Overcast
8:54 AM 75.9 °F - 73.9 °F 94% 30.06 in 10.0 mi NNE 8.1 mph - N/A   Overcast
9:10 AM 75.9 °F - 73.9 °F 94% 30.06 in 10.0 mi NNE 6.9 mph - N/A   Mostly Cloudy
9:20 AM 77.0 °F - 73.9 °F 90% 30.06 in 10.0 mi NNE 11.5 mph - N/A   Mostly Cloudy
9:30 AM 78.1 °F - 75.0 °F 90% 30.06 in 10.0 mi NNE 8.1 mph - N/A   Mostly Cloudy
9:37 AM 77.0 °F - 73.9 °F 90% 30.06 in 10.0 mi NNE 9.2 mph - N/A   Mostly Cloudy
9:54 AM 79.0 °F - 73.9 °F 84% 30.06 in 10.0 mi NNE 11.5 mph - N/A   Mostly Cloudy
10:01 AM 79.0 °F - 73.0 °F 82% 30.06 in 10.0 mi NNE 12.7 mph - N/A   Partly Cloudy
10:54 AM 82.0 °F 86.7 °F 72.0 °F 71% 30.05 in 10.0 mi NE 12.7 mph - N/A   Clear
11:44 AM 82.9 °F 88.8 °F 73.0 °F 72% 30.04 in 10.0 mi NE 9.2 mph - N/A   Mostly Cloudy
11:52 AM 84.2 °F 90.9 °F 73.4 °F 70% 30.03 in 10.0 mi NE 11.5 mph - N/A   Scattered Clouds
11:54 AM 84.0 °F 90.2 °F 73.0 °F 69% 30.04 in 10.0 mi ENE 12.7 mph - N/A   Scattered Clouds
12:54 PM 86.0 °F 91.5 °F 71.1 °F 61% 30.02 in 10.0 mi ENE 11.5 mph - N/A   Partly Cloudy
1:54 PM 86.0 °F 92.2 °F 72.0 °F 63% 29.99 in 10.0 mi NNE 11.5 mph - N/A   Scattered Clouds
2:54 PM 86.0 °F 91.5 °F 71.1 °F 61% 29.98 in 10.0 mi NE 13.8 mph - N/A   Partly Cloudy
4:54 PM 84.0 °F 91.2 °F 73.9 °F 72% 29.95 in 10.0 mi East 11.5 mph - N/A   Clear
5:54 PM 82.9 °F 88.8 °F 73.0 °F 72% 29.96 in 10.0 mi ENE 8.1 mph - N/A   Partly Cloudy
6:54 PM 81.0 °F 84.4 °F 70.0 °F 69% 29.95 in 10.0 mi NE 8.1 mph - N/A   Clear
7:54 PM 77.0 °F - 70.0 °F 79% 29.96 in 10.0 mi NE 6.9 mph - N/A   Clear
8:54 PM 77.0 °F - 70.0 °F 79% 29.97 in 10.0 mi NE 6.9 mph - N/A   Clear
9:54 PM 75.0 °F - 70.0 °F 84% 29.97 in 10.0 mi NE 8.1 mph - N/A   Clear
10:54 PM 73.9 °F - 71.1 °F 91% 29.97 in 10.0 mi NNE 8.1 mph - N/A   Clear
11:54 PM 73.0 °F - 71.1 °F 93% 29.97 in 10.0 mi NNE 5.8 mph - N/A   Clear